When you browse on this site, cookies collect data to enhance your experience and personalize the content and advertising you see.
Visit our Privacy Policy to learn more. By continuing to use the site, you agree to this use of cookies and data.
  • en Belgique
  • Liste des pays
  • À 7 jours
  • Température de l'eau
  • Carte satellitaire
  • Carte météo
  • Widgets météo
  • user-avatar
    Se connecter

    Météo par heure à Polevaya

    Ce jour, 22 Février, Vendredi

    Heure Température Précipitation Vent Pression Humidité
    00:00 -14°C° 0.1 mm 7 m/s 744 mmHg 81%
    01:00 -14°C° 0.1 mm 7 m/s 744 mmHg 81%
    02:00 -14°C° 0.1 mm 7 m/s 744 mmHg 81%
    03:00 -15°C° 0.1 mm 7 m/s 745 mmHg 81%
    04:00 -15°C° 0.1 mm 7 m/s 746 mmHg 80%
    05:00 -15°C° 0.1 mm 7 m/s 746 mmHg 79%
    06:00 -15°C° 0.1 mm 7 m/s 747 mmHg 79%
    07:00 -15°C° 0.1 mm 7 m/s 748 mmHg 79%
    08:00 -16°C° 0.1 mm 8 m/s 748 mmHg 79%
    09:00 -16°C° 0.1 mm 8 m/s 749 mmHg 77%
    10:00 -16°C° 0.1 mm 8 m/s 750 mmHg 76%
    11:00 -16°C° 0.1 mm 8 m/s 751 mmHg 74%
    12:00 -15°C° 0 mm 8 m/s 751 mmHg 72%
    13:00 -15°C° 0 mm 8 m/s 752 mmHg 70%
    14:00 -13°C° 0 mm 8 m/s 753 mmHg 68%
    15:00 -13°C° 0 mm 7 m/s 754 mmHg 70%
    16:00 -14°C° 0 mm 7 m/s 754 mmHg 72%
    17:00 -14°C° 0 mm 6 m/s 755 mmHg 74%
    18:00 -14°C° 0 mm 6 m/s 756 mmHg 76%
    19:00 -14°C° 0 mm 6 m/s 757 mmHg 78%
    20:00 -14°C° 0 mm 5 m/s 758 mmHg 79%
    21:00 -14°C° 0 mm 5 m/s 758 mmHg 81%
    22:00 -14°C° 0 mm 5 m/s 759 mmHg 83%
    23:00 -15°C° 0 mm 4 m/s 759 mmHg 85%

    Demain, 23 Février, Samedi

    Heure Température Précipitation Vent Pression Humidité
    00:00 -15°C° 0 mm 4 m/s 760 mmHg 87%
    01:00 -15°C° 0 mm 4 m/s 761 mmHg 88%
    02:00 -15°C° 0 mm 4 m/s 761 mmHg 90%
    03:00 -15°C° 0 mm 3 m/s 761 mmHg 91%
    04:00 -15°C° 0 mm 3 m/s 762 mmHg 93%
    05:00 -16°C° 0 mm 3 m/s 762 mmHg 94%
    06:00 -15°C° 0 mm 2 m/s 762 mmHg 92%
    07:00 -15°C° 0 mm 2 m/s 762 mmHg 89%
    08:00 -15°C° 0 mm 2 m/s 762 mmHg 87%
    09:00 -14°C° 0 mm 2 m/s 762 mmHg 84%
    10:00 -12°C° 0 mm 2 m/s 762 mmHg 80%
    11:00 -10°C° 0 mm 2 m/s 762 mmHg 77%
    12:00 -9°C° 0 mm 2 m/s 761 mmHg 76%
    13:00 -9°C° 0 mm 3 m/s 760 mmHg 75%
    14:00 -8°C° 0 mm 3 m/s 760 mmHg 74%
    15:00 -9°C° 0.1 mm 4 m/s 759 mmHg 78%
    16:00 -9°C° 0.1 mm 4 m/s 758 mmHg 81%
    17:00 -9°C° 0.1 mm 4 m/s 757 mmHg 85%
    18:00 -9°C° 0.5 mm 4 m/s 757 mmHg 86%
    19:00 -10°C° 0.5 mm 5 m/s 756 mmHg 88%
    20:00 -8°C° 0.5 mm 5 m/s 755 mmHg 90%
    21:00 -8°C° 0.4 mm 5 m/s 755 mmHg 90%
    22:00 -8°C° 0.4 mm 5 m/s 754 mmHg 91%
    23:00 -7°C° 0.4 mm 4 m/s 754 mmHg 91%

    Après-demain, 24 Février, Dimanche

    Heure Température Précipitation Vent Pression Humidité
    00:00 -7°C° 0.5 mm 4 m/s 753 mmHg 92%
    01:00 -5°C° 0.5 mm 4 m/s 753 mmHg 93%
    02:00 -4°C° 0.5 mm 4 m/s 753 mmHg 93%
    03:00 -3°C° 0.3 mm 4 m/s 752 mmHg 93%
    04:00 -1°C° 0.3 mm 3 m/s 752 mmHg 93%
    05:00 0°C° 0.3 mm 3 m/s 752 mmHg 93%
    06:00 0°C° 0.3 mm 3 m/s 752 mmHg 94%
    07:00 0°C° 0.3 mm 3 m/s 753 mmHg 94%
    08:00 0°C° 0.3 mm 3 m/s 753 mmHg 95%
    09:00 0°C° 0.1 mm 3 m/s 753 mmHg 96%
    10:00 +1°C° 0.1 mm 3 m/s 753 mmHg 97%
    11:00 +1°C° 0.1 mm 3 m/s 754 mmHg 98%
    12:00 +1°C° 0 mm 3 m/s 754 mmHg 98%
    13:00 +1°C° 0 mm 3 m/s 754 mmHg 98%
    14:00 0°C° 0 mm 3 m/s 754 mmHg 99%
    15:00 0°C° 0 mm 3 m/s 754 mmHg 98%
    16:00 0°C° 0 mm 3 m/s 754 mmHg 97%
    17:00 0°C° 0 mm 3 m/s 754 mmHg 96%
    18:00 0°C° 0 mm 3 m/s 754 mmHg 96%
    19:00 0°C° 0 mm 3 m/s 754 mmHg 96%
    20:00 0°C° 0 mm 3 m/s 753 mmHg 95%
    21:00 0°C° 0 mm 3 m/s 753 mmHg 95%
    22:00 0°C° 0 mm 3 m/s 752 mmHg 95%
    23:00 0°C° 0 mm 3 m/s 751 mmHg 96%

    25 Février, Lundi

    Heure Température Précipitation Vent Pression Humidité
    00:00 -1°C° 0.4 mm 4 m/s 751 mmHg 95%
    01:00 -1°C° 0.4 mm 4 m/s 750 mmHg 95%
    02:00 0°C° 0.4 mm 5 m/s 750 mmHg 94%
    03:00 0°C° 0 mm 5 m/s 749 mmHg 94%
    04:00 0°C° 0 mm 5 m/s 748 mmHg 93%
    05:00 0°C° 0 mm 5 m/s 748 mmHg 93%
    06:00 0°C° 0.1 mm 5 m/s 748 mmHg 92%
    07:00 0°C° 0.1 mm 5 m/s 748 mmHg 91%
    08:00 0°C° 0.1 mm 5 m/s 747 mmHg 89%
    09:00 0°C° 0 mm 5 m/s 747 mmHg 89%
    10:00 0°C° 0 mm 5 m/s 747 mmHg 89%
    11:00 0°C° 0 mm 5 m/s 747 mmHg 88%
    12:00 0°C° 0 mm 5 m/s 747 mmHg 86%
    13:00 0°C° 0 mm 5 m/s 747 mmHg 84%
    14:00 -1°C° 0 mm 6 m/s 747 mmHg 81%
    15:00 -2°C° 0 mm 6 m/s 747 mmHg 82%
    16:00 -2°C° 0 mm 6 m/s 747 mmHg 82%
    17:00 -2°C° 0 mm 5 m/s 746 mmHg 82%
    18:00 -2°C° 0.1 mm 5 m/s 746 mmHg 83%
    19:00 -2°C° 0.1 mm 5 m/s 746 mmHg 83%
    20:00 -2°C° 0.1 mm 5 m/s 745 mmHg 83%
    21:00 -2°C° 0.1 mm 5 m/s 745 mmHg 85%
    22:00 -2°C° 0.1 mm 4 m/s 744 mmHg 87%
    23:00 -2°C° 0.1 mm 4 m/s 744 mmHg 89%

    26 Février, Mardi

    Heure Température Précipitation Vent Pression Humidité
    00:00 -2°C° 0.1 mm 4 m/s 744 mmHg 89%
    01:00 -2°C° 0.1 mm 4 m/s 744 mmHg 89%
    02:00 -2°C° 0.1 mm 4 m/s 744 mmHg 89%
    03:00 -2°C° 0 mm 4 m/s 744 mmHg 89%
    04:00 -3°C° 0 mm 4 m/s 744 mmHg 89%
    05:00 -4°C° 0 mm 4 m/s 744 mmHg 90%
    06:00 -4°C° 0 mm 4 m/s 744 mmHg 88%
    07:00 -4°C° 0 mm 4 m/s 744 mmHg 86%
    08:00 -3°C° 0 mm 4 m/s 744 mmHg 85%
    09:00 -3°C° 0.1 mm 4 m/s 744 mmHg 84%
    10:00 -3°C° 0.1 mm 4 m/s 744 mmHg 83%
    11:00 -2°C° 0.1 mm 4 m/s 743 mmHg 82%
    12:00 -2°C° 0.1 mm 4 m/s 743 mmHg 83%
    13:00 -2°C° 0.1 mm 4 m/s 742 mmHg 83%
    14:00 -2°C° 0.1 mm 4 m/s 742 mmHg 83%
    15:00 -2°C° 0.1 mm 4 m/s 742 mmHg 85%
    16:00 -2°C° 0.1 mm 3 m/s 742 mmHg 86%
    17:00 -2°C° 0.1 mm 3 m/s 741 mmHg 87%
    18:00 -4°C° 0.1 mm 3 m/s 742 mmHg 86%
    19:00 -4°C° 0.1 mm 4 m/s 742 mmHg 85%
    20:00 -4°C° 0.1 mm 4 m/s 742 mmHg 83%
    21:00 -5°C° 0 mm 4 m/s 742 mmHg 84%
    22:00 -7°C° 0 mm 4 m/s 743 mmHg 84%
    23:00 -8°C° 0 mm 4 m/s 743 mmHg 84%

    27 Février, Mercredi

    Heure Température Précipitation Vent Pression Humidité
    00:00 -9°C° 0 mm 4 m/s 743 mmHg 84%
    01:00 -10°C° 0 mm 4 m/s 744 mmHg 84%
    02:00 -11°C° 0 mm 4 m/s 744 mmHg 84%
    03:00 -12°C° 0 mm 4 m/s 745 mmHg 84%
    04:00 -14°C° 0 mm 4 m/s 745 mmHg 83%
    05:00 -14°C° 0 mm 4 m/s 746 mmHg 83%
    06:00 -14°C° 0 mm 4 m/s 746 mmHg 81%
    07:00 -14°C° 0 mm 4 m/s 747 mmHg 79%
    08:00 -14°C° 0 mm 4 m/s 747 mmHg 78%
    09:00 -12°C° 0 mm 3 m/s 747 mmHg 75%
    10:00 -10°C° 0 mm 3 m/s 747 mmHg 72%
    11:00 -9°C° 0 mm 3 m/s 748 mmHg 69%
    12:00 -8°C° 0 mm 3 m/s 747 mmHg 70%
    13:00 -6°C° 0 mm 2 m/s 747 mmHg 71%
    14:00 -5°C° 0 mm 2 m/s 746 mmHg 71%
    15:00 -5°C° 0 mm 2 m/s 746 mmHg 77%
    16:00 -5°C° 0 mm 2 m/s 745 mmHg 83%
    17:00 -6°C° 0 mm 2 m/s 745 mmHg 89%
    18:00 -5°C° 0 mm 2 m/s 744 mmHg 89%
    19:00 -5°C° 0 mm 3 m/s 743 mmHg 90%
    20:00 -4°C° 0 mm 3 m/s 742 mmHg 91%
    21:00 -4°C° 0.1 mm 4 m/s 741 mmHg 91%
    22:00 -4°C° 0.1 mm 4 m/s 740 mmHg 91%
    23:00 -4°C° 0.1 mm 4 m/s 739 mmHg 91%
    Voir plus